Weather History for KTQE - January, 2014

Change the Weather History Date:

Friday, January 10, 2014

  Actual Average Record
Temperature  
Mean Temperature 31 °F -  
Max Temperature 37 °F 26 °F 61 °F (2012)
Min Temperature 24 °F 5 °F -22 °F (1982)
Degree Days  
Heating Degree Days 34    
Moisture  
Dew Point 28 °F    
Average Humidity 87    
Maximum Humidity 93    
Minimum Humidity 76    
Precipitation  
Precipitation 0.01 in - - ()
Sea Level Pressure  
Sea Level Pressure 29.66 in    
Wind  
Wind Speed 10 mph (SSW)    
Max Wind Speed 16 mph    
Max Gust Speed -    
Visibility 4 miles    
Events Snow    
Averages and records for this station are not official NWS values.
T = Trace of Precipitation, MM = Missing Value Source: NWS Daily Summary

Daily Weather History Graph

Daily Weather History Graph

Search for Another Location

Airport or City:

Trip Planner

Search our weather history database for the weather conditions in past years. The results will help you decide how hot, cold, wet, or windy it might be!

Date:

Astronomy

Jan. 10, 2014 Rise Set
Actual Time 7:51 AM CST 5:13 PM CST
Civil Twilight 7:20 AM CST 5:44 PM CST
Nautical Twilight 6:45 AM CST 6:19 PM CST
Astronomical Twilight 6:12 AM CST 6:52 PM CST
Moon 1:19 PM CST (1/10) 2:58 AM CST (1/10)
Length of Visible Light 10h 24m
Length of Day
9h 22m
Waxing Gibbous, 75% of the Moon is Illuminated
Jan 10
Waxing Gibbous
Jan 15
Full
Jan 23
Last Quarter
Jan 30
New
Feb 6
First Quarter

Hourly Weather History & Observations

Time (CST) Temp. Windchill Dew Point Humidity Pressure Visibility Wind Dir Wind Speed Gust Speed Precip Events Conditions
12:54 AM 28.0 °F 17.0 °F 23.0 °F 81% 29.92 in 5.0 mi SSE 13.8 mph - N/A   Haze
1:50 AM 28.4 °F 17.5 °F 23.0 °F 80% 29.87 in 5.0 mi SSE 13.8 mph - N/A   Haze
1:54 AM 28.0 °F 18.1 °F 23.0 °F 81% 29.89 in 5.0 mi SSE 11.5 mph - N/A   Haze
2:07 AM 28.0 °F 17.0 °F 23.0 °F 81% 29.86 in 5.0 mi SSE 13.8 mph - N/A   Haze
2:50 AM 28.4 °F 16.6 °F 24.8 °F 86% 29.85 in 4.0 mi South 16.1 mph - N/A   Haze
2:54 AM 28.9 °F 17.7 °F 24.1 °F 82% 29.87 in 3.0 mi South 15.0 mph - N/A   Haze
3:54 AM 28.9 °F 17.3 °F 25.0 °F 85% 29.83 in 3.0 mi SSE 16.1 mph - N/A   Overcast
4:35 AM 28.9 °F 19.8 °F 25.0 °F 85% 29.77 in 4.0 mi SE 10.4 mph - N/A   Overcast
4:54 AM 28.9 °F 19.2 °F 25.0 °F 85% 29.79 in 3.0 mi SE 11.5 mph - N/A   Overcast
5:54 AM 30.0 °F 20.0 °F 27.0 °F 88% 29.78 in 5.0 mi SSE 12.7 mph - N/A   Overcast
6:21 AM 30.9 °F 21.7 °F 27.0 °F 85% 29.74 in 5.0 mi SSE 11.5 mph - N/A   Overcast
6:44 AM 30.9 °F 22.2 °F 27.0 °F 85% 29.73 in 5.0 mi SSE 10.4 mph - N/A   Overcast
6:54 AM 30.0 °F 22.4 °F 27.0 °F 88% 29.74 in 5.0 mi SE 8.1 mph - N/A   Overcast
7:54 AM 30.0 °F 20.5 °F 27.0 °F 88% 29.73 in 4.0 mi SE 11.5 mph - N/A   Overcast
8:26 AM 30.0 °F 21.1 °F 27.0 °F 88% 29.70 in 4.0 mi SE 10.4 mph - N/A   Overcast
8:40 AM 30.0 °F 21.1 °F 27.0 °F 88% 29.70 in 3.0 mi SE 10.4 mph - N/A   Overcast
8:54 AM 30.9 °F 22.2 °F 28.0 °F 89% 29.73 in 2.5 mi SE 10.4 mph - N/A   Overcast
9:10 AM 30.9 °F 20.7 °F 28.0 °F 89% 29.71 in 1.2 mi SSE 13.8 mph - N/A   Overcast
9:54 AM 32.0 °F 23.0 °F 28.9 °F 88% 29.72 in 1.2 mi SSE 11.5 mph - N/A   Overcast
10:54 AM 33.1 °F 25.5 °F 30.9 °F 92% 29.69 in 1.0 mi SSE 9.2 mph - N/A   Overcast
11:25 AM 34.0 °F 26.0 °F 30.9 °F 89% 29.64 in 2.0 mi SSE 10.4 mph - N/A   Overcast
11:54 AM 34.0 °F 26.0 °F 30.9 °F 89% 29.63 in 2.5 mi SE 10.4 mph - N/A   Overcast
12:05 PM 34.0 °F 26.6 °F 30.9 °F 89% 29.61 in 3.0 mi SSE 9.2 mph - N/A   Overcast
12:35 PM 34.0 °F 28.0 °F 30.9 °F 89% 29.57 in 4.0 mi SSE 6.9 mph - N/A   Overcast
12:54 PM 35.1 °F 27.9 °F 30.9 °F 85% 29.58 in 4.0 mi SSE 9.2 mph - N/A   Overcast
1:37 PM 36.0 °F 30.3 °F 30.9 °F 82% 29.55 in 8.0 mi South 6.9 mph - N/A   Overcast
1:54 PM 36.0 °F 31.1 °F 30.9 °F 82% 29.57 in 9.0 mi South 5.8 mph - N/A   Overcast
2:37 PM 37.0 °F 31.6 °F 30.0 °F 76% 29.55 in 10.0 mi SSW 6.9 mph - N/A   Overcast
2:54 PM 36.0 °F 31.1 °F 30.9 °F 82% 29.57 in 5.0 mi SSE 5.8 mph - 0.00 in Snow Light Snow
3:02 PM 36.0 °F 32.1 °F 30.9 °F 82% 29.56 in 3.0 mi South 4.6 mph - 0.00 in Snow Light Snow
3:12 PM 35.1 °F 31.0 °F 30.9 °F 85% 29.56 in 2.0 mi South 4.6 mph - 0.00 in Snow Light Snow
3:15 PM 35.1 °F 31.0 °F 30.9 °F 85% 29.56 in 1.5 mi SSW 4.6 mph - 0.00 in Snow Light Snow
3:34 PM 35.1 °F 32.2 °F 32.0 °F 89% 29.56 in 2.5 mi WNW 3.5 mph - 0.00 in Snow Light Snow
3:40 PM 35.1 °F 32.2 °F 32.0 °F 89% 29.56 in 3.0 mi West 3.5 mph - 0.00 in Snow Light Snow
3:54 PM 36.0 °F 32.1 °F 32.0 °F 86% 29.57 in 3.0 mi NW 4.6 mph - 0.01 in Snow Light Snow
4:41 PM 36.0 °F 32.1 °F 32.0 °F 86% 29.56 in 5.0 mi West 4.6 mph - 0.00 in   Overcast
4:54 PM 36.0 °F - 32.0 °F 86% 29.58 in 4.0 mi Calm Calm - 0.00 in   Overcast
5:15 PM 36.0 °F - 32.0 °F 86% 29.56 in 5.0 mi Calm Calm - N/A   Overcast
5:41 PM 35.1 °F - 32.0 °F 89% 29.56 in 6.0 mi Calm Calm - N/A   Overcast
5:54 PM 35.1 °F 32.2 °F 30.9 °F 85% 29.58 in 6.0 mi WNW 3.5 mph - N/A   Overcast
6:54 PM 34.0 °F 29.8 °F 30.9 °F 89% 29.59 in 7.0 mi WNW 4.6 mph - N/A   Overcast
7:54 PM 34.0 °F 28.0 °F 30.9 °F 89% 29.60 in 7.0 mi WNW 6.9 mph - N/A   Overcast
8:29 PM 32.0 °F 27.5 °F 28.9 °F 88% 29.59 in 6.0 mi West 4.6 mph - N/A   Overcast
8:38 PM 32.0 °F 27.5 °F 28.9 °F 88% 29.59 in 5.0 mi West 4.6 mph - N/A   Mostly Cloudy
8:54 PM 30.9 °F 25.2 °F 28.0 °F 89% 29.61 in 5.0 mi West 5.8 mph - N/A   Mostly Cloudy
9:28 PM 28.0 °F 20.8 °F 25.0 °F 88% 29.59 in 2.5 mi West 6.9 mph - N/A   Partly Cloudy
9:40 PM 28.0 °F 22.8 °F 26.1 °F 92% 29.59 in 1.5 mi West 4.6 mph - N/A   Clear
9:50 PM 28.4 °F 22.2 °F 26.6 °F 93% 29.59 in 3.0 mi West 5.8 mph - N/A   Clear
9:54 PM 27.0 °F 20.5 °F 25.0 °F 92% 29.62 in 3.0 mi West 5.8 mph - N/A   Clear
10:02 PM 26.1 °F 19.4 °F 24.1 °F 92% 29.60 in 2.0 mi West 5.8 mph - N/A   Clear
10:13 PM 26.1 °F 21.9 °F 23.0 °F 88% 29.59 in 4.0 mi West 3.5 mph - N/A   Clear
10:54 PM 25.0 °F 14.8 °F 21.9 °F 88% 29.62 in 7.0 mi NW 10.4 mph - N/A   Clear
11:54 PM 24.1 °F 16.0 °F 21.0 °F 88% 29.63 in 8.0 mi WNW 6.9 mph - N/A   Clear